Time,TemperatureF,DewpointF,PressureIn,WindDirection,WindDirectionDegrees,WindSpeedMPH,WindSpeedGustMPH,Humidity,HourlyPrecipIn,Conditions,Clouds,dailyrainin,SoftwareType,DateUTC
2013-02-26 00:00:00,42.1,7.6,29.96,ESE,113,0.9,1.1,24,0.00,,,0.00,WUHU216HW,2013-02-26 07:00:00,
2013-02-26 00:05:00,41.6,8.0,29.96,NNE,23,0.4,1.1,25,0.00,,,0.00,WUHU216HW,2013-02-26 07:05:00,
2013-02-26 00:10:00,41.4,7.8,29.96,East,90,1.8,1.8,25,0.00,,,0.00,WUHU216HW,2013-02-26 07:10:00,
2013-02-26 00:15:00,41.2,7.8,29.96,SE,135,0.9,1.8,25,0.00,,,0.00,WUHU216HW,2013-02-26 07:15:00,
2013-02-26 00:20:00,41.2,7.8,29.96,East,90,0.0,1.8,25,0.00,,,0.00,WUHU216HW,2013-02-26 07:20:00,
2013-02-26 00:25:00,41.0,8.5,29.96,East,90,0.0,1.1,26,0.00,,,0.00,WUHU216HW,2013-02-26 07:25:00,
2013-02-26 00:30:00,40.7,8.1,29.96,East,90,0.0,0.9,26,0.00,,,0.00,WUHU216HW,2013-02-26 07:30:00,
2013-02-26 00:35:00,40.3,8.7,29.96,ENE,68,0.4,0.9,27,0.00,,,0.00,WUHU216HW,2013-02-26 07:35:00,
2013-02-26 00:40:00,40.1,9.5,29.96,ESE,113,1.3,2.2,28,0.00,,,0.00,WUHU216HW,2013-02-26 07:40:00,
2013-02-26 00:45:00,40.0,9.3,29.96,ENE,68,1.3,2.2,28,0.00,,,0.00,WUHU216HW,2013-02-26 07:45:00,
2013-02-26 00:50:00,40.0,9.3,29.95,ESE,113,1.1,2.2,28,0.00,,,0.00,WUHU216HW,2013-02-26 07:50:00,
2013-02-26 00:55:00,39.8,9.1,29.96,SE,135,0.4,2.0,28,0.00,,,0.00,WUHU216HW,2013-02-26 07:55:00,
2013-02-26 01:00:00,39.6,9.9,29.96,ENE,68,1.8,2.5,29,0.00,,,0.00,WUHU216HW,2013-02-26 08:00:00,
2013-02-26 01:05:00,39.4,9.7,29.96,ENE,68,0.7,2.5,29,0.00,,,0.00,WUHU216HW,2013-02-26 08:05:00,
2013-02-26 01:10:00,39.4,9.7,29.95,ESE,113,0.7,1.8,29,0.00,,,0.00,WUHU216HW,2013-02-26 08:10:00,
2013-02-26 01:15:00,39.8,10.0,29.95,ESE,113,0.9,3.1,29,0.00,,,0.00,WUHU216HW,2013-02-26 08:15:00,
2013-02-26 01:20:00,40.0,10.2,29.95,ESE,113,1.8,3.1,29,0.00,,,0.00,WUHU216HW,2013-02-26 08:20:00,
2013-02-26 01:25:00,40.1,9.5,29.95,SE,135,1.1,2.5,28,0.00,,,0.00,WUHU216HW,2013-02-26 08:25:00,
2013-02-26 01:30:00,40.1,9.5,29.95,ESE,113,2.7,3.4,28,0.00,,,0.00,WUHU216HW,2013-02-26 08:30:00,
2013-02-26 01:35:00,40.1,9.5,29.94,ESE,113,1.8,3.4,28,0.00,,,0.00,WUHU216HW,2013-02-26 08:35:00,
2013-02-26 01:40:00,40.0,9.3,29.94,East,90,2.0,3.1,28,0.00,,,0.00,WUHU216HW,2013-02-26 08:40:00,
2013-02-26 01:45:00,39.8,10.0,29.95,ENE,68,0.4,2.9,29,0.00,,,0.00,WUHU216HW,2013-02-26 08:45:00,
2013-02-26 01:50:00,39.4,9.7,29.95,North,0,2.9,2.9,29,0.00,,,0.00,WUHU216HW,2013-02-26 08:50:00,
2013-02-26 01:55:00,39.6,9.9,29.95,ENE,68,0.7,2.9,29,0.00,,,0.00,WUHU216HW,2013-02-26 08:55:00,
2013-02-26 02:00:00,39.4,9.7,29.95,North,0,0.9,2.9,29,0.00,,,0.00,WUHU216HW,2013-02-26 09:00:00,
2013-02-26 02:05:00,39.2,9.5,29.95,East,90,1.3,2.9,29,0.00,,,0.00,WUHU216HW,2013-02-26 09:05:00,
2013-02-26 02:10:00,39.1,9.4,29.94,NW,315,0.4,2.9,29,0.00,,,0.00,WUHU216HW,2013-02-26 09:10:00,
2013-02-26 02:15:00,38.9,10.1,29.94,East,90,0.0,2.0,30,0.00,,,0.00,WUHU216HW,2013-02-26 09:15:00,
2013-02-26 02:20:00,38.5,10.4,29.94,West,270,0.9,1.6,31,0.00,,,0.00,WUHU216HW,2013-02-26 09:20:00,
2013-02-26 02:25:00,38.3,9.6,29.94,NNE,23,0.0,1.8,30,0.00,,,0.00,WUHU216HW,2013-02-26 09:25:00,
2013-02-26 02:30:00,37.8,9.8,29.94,NNE,23,1.3,1.8,31,0.00,,,0.00,WUHU216HW,2013-02-26 09:30:00,
2013-02-26 02:35:00,37.8,10.4,29.94,SE,135,2.7,3.8,32,0.00,,,0.00,WUHU216HW,2013-02-26 09:35:00,
2013-02-26 02:40:00,38.2,10.1,29.94,ESE,113,2.2,3.8,31,0.00,,,0.00,WUHU216HW,2013-02-26 09:40:00,
2013-02-26 02:45:00,38.9,10.8,29.94,SSW,203,3.6,4.5,31,0.00,,,0.00,WUHU216HW,2013-02-26 09:45:00,
2013-02-26 02:50:00,39.2,10.4,29.94,SW,225,2.9,5.4,30,0.00,,,0.00,WUHU216HW,2013-02-26 09:50:00,
2013-02-26 02:55:00,40.1,10.4,29.94,SW,225,4.0,6.3,29,0.00,,,0.00,WUHU216HW,2013-02-26 09:55:00,
2013-02-26 03:00:00,40.7,10.8,29.94,WSW,248,1.1,6.3,29,0.00,,,0.00,WUHU216HW,2013-02-26 10:00:00,
2013-02-26 03:05:00,40.9,11.0,29.93,SE,135,2.9,4.0,29,0.00,,,0.00,WUHU216HW,2013-02-26 10:05:00,
2013-02-26 03:10:00,40.7,10.8,29.93,SSE,158,1.3,3.4,29,0.00,,,0.00,WUHU216HW,2013-02-26 10:10:00,
2013-02-26 03:15:00,40.1,10.4,29.93,ESE,113,2.7,2.9,29,0.00,,,0.00,WUHU216HW,2013-02-26 10:15:00,
2013-02-26 03:20:00,40.0,9.3,29.93,SSE,158,1.8,3.8,28,0.00,,,0.00,WUHU216HW,2013-02-26 10:20:00,
2013-02-26 03:25:00,39.4,9.7,29.93,SE,135,2.7,4.5,29,0.00,,,0.00,WUHU216HW,2013-02-26 10:25:00,
2013-02-26 03:30:00,39.2,9.5,29.93,East,90,1.8,4.5,29,0.00,,,0.00,WUHU216HW,2013-02-26 10:30:00,
2013-02-26 03:35:00,39.2,9.5,29.93,ESE,113,1.8,4.0,29,0.00,,,0.00,WUHU216HW,2013-02-26 10:35:00,
2013-02-26 03:40:00,39.4,9.7,29.93,West,270,0.0,4.0,29,0.00,,,0.00,WUHU216HW,2013-02-26 10:40:00,
2013-02-26 03:45:00,39.2,9.5,29.92,South,180,1.8,2.5,29,0.00,,,0.00,WUHU216HW,2013-02-26 10:45:00,
2013-02-26 03:50:00,39.1,9.4,29.92,SE,135,1.1,2.5,29,0.00,,,0.00,WUHU216HW,2013-02-26 10:50:00,
2013-02-26 03:55:00,38.9,9.2,29.92,SSE,158,2.9,4.0,29,0.00,,,0.00,WUHU216HW,2013-02-26 10:55:00,
2013-02-26 04:00:00,38.9,9.2,29.92,South,180,3.8,4.7,29,0.00,,,0.00,WUHU216HW,2013-02-26 11:00:00,
2013-02-26 04:05:00,38.9,9.2,29.92,SE,135,6.7,6.7,29,0.00,,,0.00,WUHU216HW,2013-02-26 11:05:00,
2013-02-26 04:10:00,39.2,9.5,29.92,SE,135,4.7,7.6,29,0.00,,,0.00,WUHU216HW,2013-02-26 11:10:00,
2013-02-26 04:15:00,39.4,9.7,29.91,SE,135,2.2,7.6,29,0.00,,,0.00,WUHU216HW,2013-02-26 11:15:00,
2013-02-26 04:20:00,39.2,9.5,29.91,ESE,113,1.8,6.3,29,0.00,,,0.00,WUHU216HW,2013-02-26 11:20:00,
2013-02-26 04:25:00,38.9,9.2,29.91,ESE,113,1.8,3.8,29,0.00,,,0.00,WUHU216HW,2013-02-26 11:25:00,
2013-02-26 04:30:00,38.5,8.9,29.91,SE,135,1.1,2.5,29,0.00,,,0.00,WUHU216HW,2013-02-26 11:30:00,
2013-02-26 04:35:00,38.0,8.5,29.91,ENE,68,0.7,2.5,29,0.00,,,0.00,WUHU216HW,2013-02-26 11:35:00,
2013-02-26 04:40:00,37.6,9.0,29.91,East,90,0.9,1.1,30,0.00,,,0.00,WUHU216HW,2013-02-26 11:40:00,
2013-02-26 04:45:00,37.3,9.3,29.92,North,0,0.0,1.3,31,0.00,,,0.00,WUHU216HW,2013-02-26 11:45:00,
2013-02-26 04:50:00,37.1,9.2,29.92,North,0,0.0,1.3,31,0.00,,,0.00,WUHU216HW,2013-02-26 11:50:00,
2013-02-26 04:55:00,36.5,8.6,29.91,ESE,113,0.7,0.7,31,0.00,,,0.00,WUHU216HW,2013-02-26 11:55:00,
2013-02-26 05:00:00,36.4,8.5,29.92,SSE,158,1.3,1.8,31,0.00,,,0.00,WUHU216HW,2013-02-26 12:00:00,
2013-02-26 05:05:00,36.4,8.5,29.92,SE,135,0.7,2.5,31,0.00,,,0.00,WUHU216HW,2013-02-26 12:05:00,
2013-02-26 05:10:00,36.4,9.2,29.92,SE,135,1.1,2.5,32,0.00,,,0.00,WUHU216HW,2013-02-26 12:10:00,
2013-02-26 05:15:00,36.4,9.8,29.92,North,0,0.4,2.0,33,0.00,,,0.00,WUHU216HW,2013-02-26 12:15:00,
2013-02-26 05:20:00,36.0,8.8,29.93,NW,315,0.2,1.8,32,0.00,,,0.00,WUHU216HW,2013-02-26 12:20:00,
2013-02-26 05:25:00,35.6,10.4,29.93,North,0,4.0,4.0,35,0.00,,,0.00,WUHU216HW,2013-02-26 12:25:00,
2013-02-26 05:30:00,36.0,10.8,29.93,NNW,338,0.4,4.0,35,0.00,,,0.00,WUHU216HW,2013-02-26 12:30:00,
2013-02-26 05:35:00,36.4,10.4,29.92,ENE,68,1.3,4.0,34,0.00,,,0.00,WUHU216HW,2013-02-26 12:35:00,
2013-02-26 05:40:00,36.4,9.8,29.93,NW,315,0.4,2.0,33,0.00,,,0.00,WUHU216HW,2013-02-26 12:40:00,
2013-02-26 05:45:00,36.0,9.5,29.92,ESE,113,0.0,2.5,33,0.00,,,0.00,WUHU216HW,2013-02-26 12:45:00,
2013-02-26 05:50:00,35.6,10.4,29.92,ESE,113,2.0,2.5,35,0.00,,,0.00,WUHU216HW,2013-02-26 12:50:00,
2013-02-26 05:55:00,35.5,10.3,29.93,NE,45,0.4,2.5,35,0.00,,,0.00,WUHU216HW,2013-02-26 12:55:00,
2013-02-26 06:00:00,35.1,10.0,29.93,East,90,1.6,2.7,35,0.00,,,0.00,WUHU216HW,2013-02-26 13:00:00,
2013-02-26 06:05:00,34.6,10.2,29.93,East,90,0.0,2.7,36,0.00,,,0.00,WUHU216HW,2013-02-26 13:05:00,
2013-02-26 06:10:00,34.2,10.4,29.93,NE,45,2.0,2.5,37,0.00,,,0.00,WUHU216HW,2013-02-26 13:10:00,
2013-02-26 06:15:00,34.2,11.2,29.94,North,0,0.7,2.5,38,0.00,,,0.00,WUHU216HW,2013-02-26 13:15:00,
2013-02-26 06:20:00,33.8,10.8,29.94,NNE,23,1.3,3.4,38,0.00,,,0.00,WUHU216HW,2013-02-26 13:20:00,
2013-02-26 06:25:00,33.3,10.4,29.94,NNE,23,1.1,3.4,38,0.00,,,0.00,WUHU216HW,2013-02-26 13:25:00,
2013-02-26 06:30:00,32.8,10.4,29.94,NNE,23,0.4,2.2,39,0.00,,,0.00,WUHU216HW,2013-02-26 13:30:00,
2013-02-26 06:35:00,32.8,9.8,29.94,West,270,0.0,2.2,38,0.00,,,0.00,WUHU216HW,2013-02-26 13:35:00,
2013-02-26 06:40:00,32.8,11.1,29.94,NNE,23,0.4,2.5,40,0.00,,,0.00,WUHU216HW,2013-02-26 13:40:00,
2013-02-26 06:45:00,32.8,11.1,29.94,ENE,68,1.6,2.5,40,0.00,,,0.00,WUHU216HW,2013-02-26 13:45:00,
2013-02-26 06:50:00,32.8,11.1,29.94,North,0,2.9,3.6,40,0.00,,,0.00,WUHU216HW,2013-02-26 13:50:00,
2013-02-26 06:55:00,32.8,11.1,29.95,North,0,0.7,3.6,40,0.00,,,0.00,WUHU216HW,2013-02-26 13:55:00,
2013-02-26 07:00:00,32.8,11.1,29.94,North,0,0.2,2.9,40,0.00,,,0.00,WUHU216HW,2013-02-26 14:00:00,
2013-02-26 07:05:00,32.8,11.1,29.94,NNW,338,0.7,2.7,40,0.00,,,0.00,WUHU216HW,2013-02-26 14:05:00,
2013-02-26 07:10:00,32.9,11.3,29.93,ENE,68,1.8,1.8,40,0.00,,,0.00,WUHU216HW,2013-02-26 14:10:00,
2013-02-26 07:15:00,33.5,11.7,29.93,ENE,68,0.7,2.0,40,0.00,,,0.00,WUHU216HW,2013-02-26 14:15:00,
2013-02-26 07:20:00,34.0,12.3,29.93,North,0,1.1,2.0,40,0.00,,,0.00,WUHU216HW,2013-02-26 14:20:00,
2013-02-26 07:25:00,34.6,12.1,29.94,North,0,1.3,1.8,39,0.00,,,0.00,WUHU216HW,2013-02-26 14:25:00,
2013-02-26 07:30:00,35.1,11.9,29.94,NNE,23,1.1,2.5,38,0.00,,,0.00,WUHU216HW,2013-02-26 14:30:00,
2013-02-26 07:35:00,35.5,12.3,29.94,North,0,0.4,3.4,38,0.00,,,0.00,WUHU216HW,2013-02-26 14:35:00,
2013-02-26 07:40:00,35.6,12.4,29.94,NNE,23,0.0,3.4,38,0.00,,,0.00,WUHU216HW,2013-02-26 14:40:00,
2013-02-26 07:45:00,36.0,12.7,29.94,North,0,0.7,2.9,38,0.00,,,0.00,WUHU216HW,2013-02-26 14:45:00,
2013-02-26 07:50:00,36.5,12.5,29.95,North,0,1.3,2.9,37,0.00,,,0.00,WUHU216HW,2013-02-26 14:50:00,
2013-02-26 07:55:00,37.1,13.1,29.94,NNE,23,2.9,2.9,37,0.00,,,0.00,WUHU216HW,2013-02-26 14:55:00,
2013-02-26 08:00:00,37.8,13.1,29.95,NNE,23,1.3,2.9,36,0.00,,,0.00,WUHU216HW,2013-02-26 15:00:00,
2013-02-26 08:05:00,38.5,13.7,29.95,ENE,68,0.4,2.9,36,0.00,,,0.00,WUHU216HW,2013-02-26 15:05:00,
2013-02-26 08:10:00,39.2,13.7,29.95,ENE,68,1.1,2.0,35,0.00,,,0.00,WUHU216HW,2013-02-26 15:10:00,
2013-02-26 08:15:00,40.0,14.3,29.95,NE,45,1.1,2.5,35,0.00,,,0.00,WUHU216HW,2013-02-26 15:15:00,
2013-02-26 08:20:00,40.7,14.3,29.95,NNE,23,0.7,2.5,34,0.00,,,0.00,WUHU216HW,2013-02-26 15:20:00,
2013-02-26 08:25:00,41.0,14.1,29.95,ENE,68,0.0,2.5,33,0.00,,,0.00,WUHU216HW,2013-02-26 15:25:00,
2013-02-26 08:30:00,41.8,14.0,29.95,ESE,113,1.3,2.9,32,0.00,,,0.00,WUHU216HW,2013-02-26 15:30:00,
2013-02-26 08:35:00,42.5,14.6,29.95,NE,45,0.4,2.9,32,0.00,,,0.00,WUHU216HW,2013-02-26 15:35:00,
2013-02-26 08:40:00,43.0,15.0,29.95,East,90,1.3,2.7,32,0.00,,,0.00,WUHU216HW,2013-02-26 15:40:00,
2013-02-26 08:45:00,43.7,15.7,29.95,SE,135,0.0,2.7,32,0.00,,,0.00,WUHU216HW,2013-02-26 15:45:00,
2013-02-26 08:50:00,44.6,16.5,29.95,ESE,113,0.9,2.2,32,0.00,,,0.00,WUHU216HW,2013-02-26 15:50:00,
2013-02-26 08:55:00,45.4,16.5,29.95,SE,135,2.2,2.7,31,0.00,,,0.00,WUHU216HW,2013-02-26 15:55:00,
2013-02-26 09:00:00,46.3,16.6,29.94,SE,135,3.6,3.6,30,0.00,,,0.00,WUHU216HW,2013-02-26 16:00:00,
2013-02-26 09:05:00,46.8,16.1,29.94,East,90,0.0,3.6,29,0.00,,,0.00,WUHU216HW,2013-02-26 16:05:00,
2013-02-26 09:10:00,47.2,16.5,29.94,ESE,113,1.1,3.6,29,0.00,,,0.00,WUHU216HW,2013-02-26 16:10:00,
2013-02-26 09:15:00,47.7,16.0,29.94,SE,135,2.7,4.0,28,0.00,,,0.00,WUHU216HW,2013-02-26 16:15:00,
2013-02-26 09:20:00,47.9,15.2,29.94,West,270,0.9,4.0,27,0.00,,,0.00,WUHU216HW,2013-02-26 16:20:00,
2013-02-26 09:25:00,48.2,16.5,29.94,NNE,23,0.4,3.6,28,0.00,,,0.00,WUHU216HW,2013-02-26 16:25:00,
2013-02-26 09:30:00,49.1,17.2,29.94,ESE,113,0.4,3.6,28,0.00,,,0.00,WUHU216HW,2013-02-26 16:30:00,
2013-02-26 09:35:00,49.9,16.9,29.94,ESE,113,2.5,2.7,27,0.00,,,0.00,WUHU216HW,2013-02-26 16:35:00,
2013-02-26 09:40:00,50.2,15.4,29.94,North,0,4.0,4.0,25,0.00,,,0.00,WUHU216HW,2013-02-26 16:40:00,
2013-02-26 09:45:00,50.4,15.5,29.94,NE,45,2.2,4.0,25,0.00,,,0.00,WUHU216HW,2013-02-26 16:45:00,
2013-02-26 09:50:00,50.9,16.0,29.94,East,90,2.7,4.0,25,0.00,,,0.00,WUHU216HW,2013-02-26 16:50:00,
2013-02-26 09:55:00,51.5,15.5,29.94,ENE,68,2.0,3.4,24,0.00,,,0.00,WUHU216HW,2013-02-26 16:55:00,
2013-02-26 10:00:00,52.2,16.1,29.93,NNE,23,1.6,3.8,24,0.00,,,0.00,WUHU216HW,2013-02-26 17:00:00,
2013-02-26 10:05:00,53.1,15.9,29.93,NNW,338,0.7,3.8,23,0.00,,,0.00,WUHU216HW,2013-02-26 17:05:00,
2013-02-26 10:10:00,53.6,15.4,29.93,East,90,2.5,3.8,22,0.00,,,0.00,WUHU216HW,2013-02-26 17:10:00,
2013-02-26 10:15:00,53.8,15.6,29.93,SE,135,2.9,3.8,22,0.00,,,0.00,WUHU216HW,2013-02-26 17:15:00,
2013-02-26 10:20:00,54.7,16.4,29.93,ESE,113,2.7,3.8,22,0.00,,,0.00,WUHU216HW,2013-02-26 17:20:00,
2013-02-26 10:25:00,55.1,15.8,29.93,ESE,113,2.5,4.7,21,0.00,,,0.00,WUHU216HW,2013-02-26 17:25:00,
2013-02-26 10:30:00,55.1,15.8,29.93,ESE,113,2.5,4.7,21,0.00,,,0.00,WUHU216HW,2013-02-26 17:30:00,
2013-02-26 10:35:00,55.8,16.4,29.93,ESE,113,3.6,4.5,21,0.00,,,0.00,WUHU216HW,2013-02-26 17:35:00,
2013-02-26 10:40:00,56.5,16.9,29.93,ESE,113,3.1,5.4,21,0.00,,,0.00,WUHU216HW,2013-02-26 17:40:00,
2013-02-26 10:45:00,57.1,16.4,29.93,East,90,2.5,5.4,20,0.00,,,0.00,WUHU216HW,2013-02-26 17:45:00,
2013-02-26 10:50:00,57.2,13.5,29.92,East,90,2.9,4.9,18,0.00,,,0.00,WUHU216HW,2013-02-26 17:50:00,
2013-02-26 10:55:00,57.2,13.5,29.93,ESE,113,3.6,4.9,18,0.00,,,0.00,WUHU216HW,2013-02-26 17:55:00,
2013-02-26 11:00:00,57.2,13.5,29.92,SSE,158,3.4,4.7,18,0.00,,,0.00,WUHU216HW,2013-02-26 18:00:00,
2013-02-26 11:05:00,57.8,12.3,29.92,ESE,113,3.6,6.3,17,0.00,,,0.00,WUHU216HW,2013-02-26 18:05:00,
2013-02-26 11:10:00,57.8,12.3,29.91,East,90,5.4,6.3,17,0.00,,,0.00,WUHU216HW,2013-02-26 18:10:00,
2013-02-26 11:15:00,58.0,12.5,29.91,ENE,68,2.0,6.7,17,0.00,,,0.00,WUHU216HW,2013-02-26 18:15:00,
2013-02-26 11:20:00,58.7,13.1,29.91,SSW,203,4.7,6.7,17,0.00,,,0.00,WUHU216HW,2013-02-26 18:20:00,
2013-02-26 11:25:00,59.4,12.2,29.91,SSE,158,6.9,6.9,16,0.00,,,0.00,WUHU216HW,2013-02-26 18:25:00,
2013-02-26 11:30:00,59.8,12.4,29.91,WSW,248,4.9,7.6,16,0.00,,,0.00,WUHU216HW,2013-02-26 18:30:00,
2013-02-26 11:35:00,60.1,11.2,29.91,West,270,9.8,9.8,15,0.00,,,0.00,WUHU216HW,2013-02-26 18:35:00,
2013-02-26 11:40:00,59.4,12.2,29.91,South,180,6.3,10.3,16,0.00,,,0.00,WUHU216HW,2013-02-26 18:40:00,
2013-02-26 11:45:00,59.0,11.8,29.90,WSW,248,8.7,10.3,16,0.00,,,0.00,WUHU216HW,2013-02-26 18:45:00,
2013-02-26 11:50:00,59.0,10.3,29.90,WNW,293,8.1,10.3,15,0.00,,,0.00,WUHU216HW,2013-02-26 18:50:00,
2013-02-26 11:55:00,59.6,12.2,29.90,WSW,248,5.8,11.4,16,0.00,,,0.00,WUHU216HW,2013-02-26 18:55:00,
2013-02-26 12:00:00,59.6,10.7,29.90,WSW,248,6.9,11.4,15,0.00,,,0.00,WUHU216HW,2013-02-26 19:00:00,
2013-02-26 12:05:00,58.3,11.3,29.90,West,270,9.6,12.3,16,0.00,,,0.00,WUHU216HW,2013-02-26 19:05:00,
2013-02-26 12:10:00,58.0,12.5,29.89,West,270,10.5,12.3,17,0.00,,,0.00,WUHU216HW,2013-02-26 19:10:00,
2013-02-26 12:15:00,58.0,12.5,29.89,WSW,248,11.0,11.0,17,0.00,,,0.00,WUHU216HW,2013-02-26 19:15:00,
2013-02-26 12:20:00,58.0,12.5,29.89,WSW,248,9.2,11.6,17,0.00,,,0.00,WUHU216HW,2013-02-26 19:20:00,
2013-02-26 12:25:00,58.1,12.6,29.88,SW,225,5.4,13.0,17,0.00,,,0.00,WUHU216HW,2013-02-26 19:25:00,
2013-02-26 12:30:00,58.3,12.8,29.88,WSW,248,8.9,13.0,17,0.00,,,0.00,WUHU216HW,2013-02-26 19:30:00,
2013-02-26 12:35:00,59.0,13.3,29.88,South,180,9.2,11.4,17,0.00,,,0.00,WUHU216HW,2013-02-26 19:35:00,
2013-02-26 12:40:00,59.0,11.8,29.88,NNW,338,4.5,9.4,16,0.00,,,0.00,WUHU216HW,2013-02-26 19:40:00,
2013-02-26 12:45:00,59.8,14.0,29.88,SSE,158,2.2,9.4,17,0.00,,,0.00,WUHU216HW,2013-02-26 19:45:00,
2013-02-26 12:50:00,61.0,15.0,29.87,SE,135,4.5,4.7,17,0.00,,,0.00,WUHU216HW,2013-02-26 19:50:00,
2013-02-26 12:55:00,61.9,14.2,29.87,ESE,113,2.0,4.7,16,0.00,,,0.00,WUHU216HW,2013-02-26 19:55:00,
2013-02-26 13:00:00,62.1,14.4,29.87,SSW,203,3.8,6.3,16,0.00,,,0.00,WUHU216HW,2013-02-26 20:00:00,
2013-02-26 13:05:00,62.5,13.1,29.87,ESE,113,3.1,6.3,15,0.00,,,0.00,WUHU216HW,2013-02-26 20:05:00,
2013-02-26 13:10:00,62.8,15.0,29.86,SW,225,1.8,4.5,16,0.00,,,0.00,WUHU216HW,2013-02-26 20:10:00,
2013-02-26 13:15:00,63.0,10.4,29.86,WSW,248,4.7,6.7,13,0.00,,,0.00,WUHU216HW,2013-02-26 20:15:00,
2013-02-26 13:20:00,62.8,10.3,29.86,West,270,5.4,10.5,13,0.00,,,0.00,WUHU216HW,2013-02-26 20:20:00,
2013-02-26 13:25:00,62.3,8.3,29.86,West,270,10.7,10.7,12,0.00,,,0.00,WUHU216HW,2013-02-26 20:25:00,
2013-02-26 13:30:00,61.9,9.6,29.85,West,270,6.5,10.7,13,0.00,,,0.00,WUHU216HW,2013-02-26 20:30:00,
2013-02-26 13:35:00,62.3,9.8,29.85,WSW,248,9.4,12.8,13,0.00,,,0.00,WUHU216HW,2013-02-26 20:35:00,
2013-02-26 13:40:00,62.3,9.8,29.84,West,270,6.3,12.8,13,0.00,,,0.00,WUHU216HW,2013-02-26 20:40:00,
2013-02-26 13:45:00,62.5,8.4,29.84,SW,225,11.2,13.0,12,0.00,,,0.00,WUHU216HW,2013-02-26 20:45:00,
2013-02-26 13:50:00,62.6,6.9,29.83,West,270,9.2,15.0,11,0.00,,,0.00,WUHU216HW,2013-02-26 20:50:00,
2013-02-26 13:55:00,62.5,6.9,29.83,West,270,10.1,15.0,11,0.00,,,0.00,WUHU216HW,2013-02-26 20:55:00,
2013-02-26 14:00:00,62.6,5.4,29.83,WNW,293,11.0,16.3,10,0.00,,,0.00,WUHU216HW,2013-02-26 21:00:00,
2013-02-26 14:05:00,62.8,5.5,29.82,WNW,293,12.1,16.3,10,0.00,,,0.00,WUHU216HW,2013-02-26 21:05:00,
2013-02-26 14:10:00,62.8,5.5,29.82,NW,315,12.8,15.4,10,0.00,,,0.00,WUHU216HW,2013-02-26 21:10:00,
2013-02-26 14:15:00,63.0,5.7,29.82,WSW,248,13.0,13.4,10,0.00,,,0.00,WUHU216HW,2013-02-26 21:15:00,
2013-02-26 14:20:00,63.4,6.0,29.82,NW,315,11.4,13.2,8,0.00,,,0.00,WUHU216HW,2013-02-26 21:20:00,
2013-02-26 14:25:00,63.9,6.3,29.82,WNW,293,10.7,12.5,9,0.00,,,0.00,WUHU216HW,2013-02-26 21:25:00,
2013-02-26 14:30:00,64.1,6.4,29.83,WSW,248,10.5,12.1,8,0.00,,,0.00,WUHU216HW,2013-02-26 21:30:00,
2013-02-26 14:35:00,64.3,6.6,29.83,SW,225,11.4,14.3,8,0.00,,,0.00,WUHU216HW,2013-02-26 21:35:00,
2013-02-26 14:40:00,64.3,6.6,29.83,West,270,16.3,16.3,8,0.00,,,0.00,WUHU216HW,2013-02-26 21:40:00,
2013-02-26 14:45:00,64.1,6.4,29.82,West,270,9.8,16.3,8,0.00,,,0.00,WUHU216HW,2013-02-26 21:45:00,
2013-02-26 14:50:00,64.1,6.4,29.82,WSW,248,8.1,17.9,7,0.00,,,0.00,WUHU216HW,2013-02-26 21:50:00,
2013-02-26 14:55:00,64.3,6.6,29.82,NW,315,9.4,17.9,8,0.00,,,0.00,WUHU216HW,2013-02-26 21:55:00,
2013-02-26 15:00:00,64.3,6.6,29.82,WSW,248,9.4,15.0,8,0.00,,,0.00,WUHU216HW,2013-02-26 22:00:00,
2013-02-26 15:05:00,64.1,6.4,29.82,SSW,203,10.3,15.0,7,0.00,,,0.00,WUHU216HW,2013-02-26 22:05:00,
2013-02-26 15:10:00,64.4,6.7,29.82,WNW,293,6.0,14.3,7,0.00,,,0.00,WUHU216HW,2013-02-26 22:10:00,
2013-02-26 15:15:00,65.0,7.1,29.82,NW,315,14.1,14.1,7,0.00,,,0.00,WUHU216HW,2013-02-26 22:15:00,
2013-02-26 15:20:00,65.0,7.1,29.82,WSW,248,9.6,14.1,7,0.00,,,0.00,WUHU216HW,2013-02-26 22:20:00,
2013-02-26 15:25:00,65.0,7.1,29.82,West,270,12.3,12.3,7,0.00,,,0.00,WUHU216HW,2013-02-26 22:25:00,
2013-02-26 15:30:00,64.8,6.9,29.82,West,270,13.2,13.2,8,0.00,,,0.00,WUHU216HW,2013-02-26 22:30:00,
2013-02-26 15:35:00,65.0,7.1,29.81,SW,225,7.6,13.2,7,0.00,,,0.00,WUHU216HW,2013-02-26 22:35:00,
2013-02-26 15:40:00,65.0,7.1,29.82,South,180,13.0,18.6,7,0.00,,,0.00,WUHU216HW,2013-02-26 22:40:00,
2013-02-26 15:45:00,65.2,7.2,29.82,WNW,293,19.5,19.5,6,0.00,,,0.00,WUHU216HW,2013-02-26 22:45:00,
2013-02-26 15:50:00,64.8,6.9,29.82,NNW,338,7.6,19.5,7,0.00,,,0.00,WUHU216HW,2013-02-26 22:50:00,
2013-02-26 15:55:00,65.2,7.2,29.82,SW,225,6.9,14.1,7,0.00,,,0.00,WUHU216HW,2013-02-26 22:55:00,
2013-02-26 16:00:00,65.3,7.4,29.82,NW,315,10.3,16.6,7,0.00,,,0.00,WUHU216HW,2013-02-26 23:00:00,
2013-02-26 16:05:00,65.3,7.4,29.82,WSW,248,13.9,16.6,7,0.00,,,0.00,WUHU216HW,2013-02-26 23:05:00,
2013-02-26 16:10:00,65.2,7.2,29.82,SSW,203,10.5,19.5,7,0.00,,,0.00,WUHU216HW,2013-02-26 23:10:00,
2013-02-26 16:15:00,65.0,7.1,29.82,West,270,6.9,19.5,7,0.00,,,0.00,WUHU216HW,2013-02-26 23:15:00,
2013-02-26 16:20:00,65.2,7.2,29.82,WSW,248,10.7,12.8,7,0.00,,,0.00,WUHU216HW,2013-02-26 23:20:00,
2013-02-26 16:25:00,65.2,7.2,29.82,WSW,248,11.9,11.9,7,0.00,,,0.00,WUHU216HW,2013-02-26 23:25:00,
2013-02-26 16:30:00,65.0,7.1,29.82,NW,315,9.2,11.9,7,0.00,,,0.00,WUHU216HW,2013-02-26 23:30:00,
2013-02-26 16:35:00,65.0,7.1,29.82,SW,225,9.8,13.4,7,0.00,,,0.00,WUHU216HW,2013-02-26 23:35:00,
2013-02-26 16:40:00,64.6,6.9,29.82,WSW,248,21.0,21.0,7,0.00,,,0.00,WUHU216HW,2013-02-26 23:40:00,
2013-02-26 16:45:00,64.4,6.7,29.82,NNW,338,4.7,21.0,7,0.00,,,0.00,WUHU216HW,2013-02-26 23:45:00,
2013-02-26 16:50:00,64.4,6.7,29.82,West,270,6.0,15.0,7,0.00,,,0.00,WUHU216HW,2013-02-26 23:50:00,
2013-02-26 16:55:00,64.4,6.7,29.83,NW,315,6.9,15.0,7,0.00,,,0.00,WUHU216HW,2013-02-26 23:55:00,
2013-02-26 17:00:00,63.9,6.3,29.83,WNW,293,8.7,10.1,7,0.00,,,0.00,WUHU216HW,2013-02-27 00:00:00,
2013-02-26 17:05:00,63.7,6.1,29.83,NW,315,6.9,12.5,7,0.00,,,0.00,WUHU216HW,2013-02-27 00:05:00,
2013-02-26 17:10:00,63.4,6.0,29.83,WSW,248,12.3,12.5,7,0.00,,,0.00,WUHU216HW,2013-02-27 00:10:00,
2013-02-26 17:15:00,63.0,5.7,29.83,WNW,293,5.4,13.9,7,0.00,,,0.00,WUHU216HW,2013-02-27 00:15:00,
2013-02-26 17:20:00,63.0,5.7,29.83,WNW,293,7.6,13.9,7,0.00,,,0.00,WUHU216HW,2013-02-27 00:20:00,
2013-02-26 17:25:00,62.6,5.4,29.83,NNW,338,6.5,12.8,7,0.00,,,0.00,WUHU216HW,2013-02-27 00:25:00,
2013-02-26 17:30:00,62.3,5.1,29.83,NW,315,3.4,15.0,7,0.00,,,0.00,WUHU216HW,2013-02-27 00:30:00,
2013-02-26 17:35:00,61.9,4.9,29.84,North,0,5.6,15.0,7,0.00,,,0.00,WUHU216HW,2013-02-27 00:35:00,
2013-02-26 17:40:00,61.6,4.5,29.84,NNW,338,6.9,15.9,7,0.00,,,0.00,WUHU216HW,2013-02-27 00:40:00,
2013-02-26 17:45:00,61.2,4.2,29.84,NNW,338,8.5,15.9,7,0.00,,,0.00,WUHU216HW,2013-02-27 00:45:00,
2013-02-26 17:50:00,60.8,4.0,29.84,NW,315,3.6,14.5,7,0.00,,,0.00,WUHU216HW,2013-02-27 00:50:00,
2013-02-26 17:55:00,60.5,3.7,29.84,WNW,293,7.2,11.4,7,0.00,,,0.00,WUHU216HW,2013-02-27 00:55:00,
2013-02-26 18:00:00,60.3,3.5,29.84,NW,315,5.8,11.9,7,0.00,,,0.00,WUHU216HW,2013-02-27 01:00:00,
2013-02-26 18:05:00,59.9,3.2,29.84,WSW,248,4.3,11.9,7,0.00,,,0.00,WUHU216HW,2013-02-27 01:05:00,
2013-02-26 18:10:00,59.8,3.1,29.84,WNW,293,9.8,10.5,7,0.00,,,0.00,WUHU216HW,2013-02-27 01:10:00,
2013-02-26 18:15:00,59.6,3.0,29.84,WSW,248,6.7,12.1,7,0.00,,,0.00,WUHU216HW,2013-02-27 01:15:00,
2013-02-26 18:20:00,59.4,2.8,29.85,NNW,338,5.6,20.8,8,0.00,,,0.00,WUHU216HW,2013-02-27 01:20:00,
2013-02-26 18:25:00,59.2,2.7,29.85,West,270,15.9,20.8,8,0.00,,,0.00,WUHU216HW,2013-02-27 01:25:00,
2013-02-26 18:30:00,59.0,2.5,29.85,West,270,8.9,20.1,8,0.00,,,0.00,WUHU216HW,2013-02-27 01:30:00,
2013-02-26 18:35:00,58.9,2.3,29.86,WSW,248,8.9,15.9,8,0.00,,,0.00,WUHU216HW,2013-02-27 01:35:00,
2013-02-26 18:40:00,58.7,2.3,29.86,WNW,293,6.9,14.8,8,0.00,,,0.00,WUHU216HW,2013-02-27 01:40:00,
2013-02-26 18:45:00,58.7,2.3,29.86,NW,315,4.9,14.8,8,0.00,,,0.00,WUHU216HW,2013-02-27 01:45:00,
2013-02-26 18:50:00,58.5,2.1,29.86,West,270,6.0,11.6,8,0.00,,,0.00,WUHU216HW,2013-02-27 01:50:00,
2013-02-26 18:55:00,58.1,1.8,29.86,West,270,11.9,15.7,8,0.00,,,0.00,WUHU216HW,2013-02-27 01:55:00,
2013-02-26 19:00:00,58.1,1.8,29.86,North,0,7.6,15.7,8,0.00,,,0.00,WUHU216HW,2013-02-27 02:00:00,
2013-02-26 19:05:00,58.0,1.6,29.86,WNW,293,10.7,18.1,8,0.00,,,0.00,WUHU216HW,2013-02-27 02:05:00,
2013-02-26 19:10:00,58.0,1.6,29.87,WNW,293,13.9,18.1,8,0.00,,,0.00,WUHU216HW,2013-02-27 02:10:00,
2013-02-26 19:15:00,57.8,1.5,29.86,NNW,338,11.4,17.2,8,0.00,,,0.00,WUHU216HW,2013-02-27 02:15:00,
2013-02-26 19:20:00,57.4,1.3,29.86,NW,315,11.2,14.1,10,0.00,,,0.00,WUHU216HW,2013-02-27 02:20:00,
2013-02-26 19:25:00,57.4,1.3,29.86,WSW,248,14.3,15.0,10,0.00,,,0.00,WUHU216HW,2013-02-27 02:25:00,
2013-02-26 19:30:00,57.4,1.3,29.86,West,270,12.3,18.6,10,0.00,,,0.00,WUHU216HW,2013-02-27 02:30:00,
2013-02-26 19:35:00,57.4,1.3,29.87,NW,315,15.7,18.6,10,0.00,,,0.00,WUHU216HW,2013-02-27 02:35:00,
2013-02-26 19:40:00,57.2,1.1,29.87,SW,225,13.9,18.8,10,0.00,,,0.00,WUHU216HW,2013-02-27 02:40:00,
2013-02-26 19:45:00,57.1,1.0,29.88,NNW,338,18.3,21.5,10,0.00,,,0.00,WUHU216HW,2013-02-27 02:45:00,
2013-02-26 19:50:00,56.9,0.8,29.88,NW,315,9.8,21.5,10,0.00,,,0.00,WUHU216HW,2013-02-27 02:50:00,
2013-02-26 19:55:00,56.7,2.3,29.89,North,0,6.0,18.3,11,0.00,,,0.00,WUHU216HW,2013-02-27 02:55:00,
2013-02-26 20:00:00,56.5,2.2,29.89,North,0,11.4,14.3,11,0.00,,,0.00,WUHU216HW,2013-02-27 03:00:00,
2013-02-26 20:05:00,56.9,2.3,29.90,WNW,293,14.3,18.8,11,0.00,,,0.00,WUHU216HW,2013-02-27 03:05:00,
2013-02-26 20:10:00,56.5,2.2,29.91,NNW,338,8.5,18.8,11,0.00,,,0.00,WUHU216HW,2013-02-27 03:10:00,
2013-02-26 20:15:00,55.8,3.2,29.91,NNE,23,11.2,14.3,12,0.00,,,0.00,WUHU216HW,2013-02-27 03:15:00,
2013-02-26 20:20:00,55.4,2.9,29.92,NNW,338,7.2,13.2,12,0.00,,,0.00,WUHU216HW,2013-02-27 03:20:00,
2013-02-26 20:25:00,55.1,2.6,29.92,NNW,338,6.9,12.1,12,0.00,,,0.00,WUHU216HW,2013-02-27 03:25:00,
2013-02-26 20:30:00,54.7,3.8,29.94,NNW,338,8.1,9.4,13,0.00,,,0.00,WUHU216HW,2013-02-27 03:30:00,
2013-02-26 20:35:00,53.8,4.6,29.94,NNE,23,5.4,9.8,14,0.00,,,0.00,WUHU216HW,2013-02-27 03:35:00,
2013-02-26 20:40:00,53.3,4.1,29.95,North,0,3.4,9.8,14,0.00,,,0.00,WUHU216HW,2013-02-27 03:40:00,
2013-02-26 20:45:00,52.7,3.7,29.95,NNE,23,2.7,7.8,14,0.00,,,0.00,WUHU216HW,2013-02-27 03:45:00,
2013-02-26 20:50:00,52.2,3.2,29.95,NE,45,2.7,7.8,14,0.00,,,0.00,WUHU216HW,2013-02-27 03:50:00,
2013-02-26 20:55:00,51.8,3.0,29.96,North,0,2.5,6.3,14,0.00,,,0.00,WUHU216HW,2013-02-27 03:55:00,
2013-02-26 21:00:00,51.5,4.2,29.96,NNE,23,5.4,6.7,15,0.00,,,0.00,WUHU216HW,2013-02-27 04:00:00,
2013-02-26 21:05:00,50.9,3.8,29.96,North,0,1.8,6.7,15,0.00,,,0.00,WUHU216HW,2013-02-27 04:05:00,
2013-02-26 21:10:00,50.6,3.5,29.97,NNE,23,4.3,5.4,15,0.00,,,0.00,WUHU216HW,2013-02-27 04:10:00,
2013-02-26 21:15:00,50.2,3.3,29.97,North,0,4.9,5.4,15,0.00,,,0.00,WUHU216HW,2013-02-27 04:15:00,
2013-02-26 21:20:00,50.0,3.1,29.98,NNE,23,2.7,6.5,15,0.00,,,0.00,WUHU216HW,2013-02-27 04:20:00,
2013-02-26 21:25:00,49.7,2.8,29.99,North,0,0.7,6.5,15,0.00,,,0.00,WUHU216HW,2013-02-27 04:25:00,
2013-02-26 21:30:00,49.3,2.5,29.99,North,0,1.3,5.6,15,0.00,,,0.00,WUHU216HW,2013-02-27 04:30:00,
2013-02-26 21:35:00,49.0,2.2,29.99,North,0,3.4,4.5,15,0.00,,,0.00,WUHU216HW,2013-02-27 04:35:00,
2013-02-26 21:40:00,48.8,2.1,29.99,North,0,3.4,4.5,15,0.00,,,0.00,WUHU216HW,2013-02-27 04:40:00,
2013-02-26 21:45:00,48.6,0.5,29.99,North,0,1.8,4.7,14,0.00,,,0.00,WUHU216HW,2013-02-27 04:45:00,
2013-02-26 21:50:00,48.2,1.6,29.99,NNE,23,5.1,5.1,15,0.00,,,0.00,WUHU216HW,2013-02-27 04:50:00,
2013-02-26 21:55:00,48.1,0.0,30.00,North,0,1.8,5.1,14,0.00,,,0.00,WUHU216HW,2013-02-27 04:55:00,
2013-02-26 22:00:00,47.9,-0.2,30.00,North,0,2.7,5.1,14,0.00,,,0.00,WUHU216HW,2013-02-27 05:00:00,
2013-02-26 22:05:00,47.5,-0.4,30.00,NNE,23,2.7,4.7,14,0.00,,,0.00,WUHU216HW,2013-02-27 05:05:00,
2013-02-26 22:10:00,47.3,-0.5,30.00,NNW,338,4.9,6.7,14,0.00,,,0.00,WUHU216HW,2013-02-27 05:10:00,
2013-02-26 22:15:00,47.2,-0.7,30.00,NNW,338,4.3,6.7,14,0.00,,,0.00,WUHU216HW,2013-02-27 05:15:00,
2013-02-26 22:20:00,47.2,-0.7,30.01,NNW,338,3.8,7.6,14,0.00,,,0.00,WUHU216HW,2013-02-27 05:20:00,
2013-02-26 22:25:00,46.8,-1.0,30.01,NNW,338,4.0,7.6,14,0.00,,,0.00,WUHU216HW,2013-02-27 05:25:00,
2013-02-26 22:30:00,46.6,-1.2,30.01,North,0,4.0,6.7,14,0.00,,,0.00,WUHU216HW,2013-02-27 05:30:00,
2013-02-26 22:35:00,46.4,-1.2,30.01,NW,315,5.8,6.7,14,0.00,,,0.00,WUHU216HW,2013-02-27 05:35:00,
2013-02-26 22:40:00,46.3,-1.4,30.02,North,0,4.0,5.8,14,0.00,,,0.00,WUHU216HW,2013-02-27 05:40:00,
2013-02-26 22:45:00,46.1,-1.6,30.02,NNW,338,5.4,5.8,14,0.00,,,0.00,WUHU216HW,2013-02-27 05:45:00,
2013-02-26 22:50:00,45.9,-1.7,30.02,North,0,3.1,5.4,14,0.00,,,0.00,WUHU216HW,2013-02-27 05:50:00,
2013-02-26 22:55:00,45.7,-0.3,30.03,North,0,1.8,5.4,15,0.00,,,0.00,WUHU216HW,2013-02-27 05:55:00,
2013-02-26 23:00:00,45.4,-0.7,30.03,North,0,2.0,5.8,15,0.00,,,0.00,WUHU216HW,2013-02-27 06:00:00,
2013-02-26 23:05:00,45.4,-0.7,30.03,NNW,338,3.1,5.8,15,0.00,,,0.00,WUHU216HW,2013-02-27 06:05:00,
2013-02-26 23:10:00,45.0,-1.0,30.03,North,0,5.6,5.8,15,0.00,,,0.00,WUHU216HW,2013-02-27 06:10:00,
2013-02-26 23:15:00,45.0,-1.0,30.03,NNE,23,3.1,7.6,15,0.00,,,0.00,WUHU216HW,2013-02-27 06:15:00,
2013-02-26 23:20:00,44.8,-1.1,30.04,North,0,3.4,7.6,15,0.00,,,0.00,WUHU216HW,2013-02-27 06:20:00,
2013-02-26 23:25:00,44.6,0.2,30.04,NW,315,2.5,6.3,16,0.00,,,0.00,WUHU216HW,2013-02-27 06:25:00,
2013-02-26 23:30:00,44.3,-0.1,30.04,NNW,338,3.4,6.3,16,0.00,,,0.00,WUHU216HW,2013-02-27 06:30:00,
2013-02-26 23:35:00,44.1,-0.3,30.04,NNW,338,3.1,4.9,16,0.00,,,0.00,WUHU216HW,2013-02-27 06:35:00,
2013-02-26 23:40:00,43.9,1.1,30.04,North,0,2.9,5.4,17,0.00,,,0.00,WUHU216HW,2013-02-27 06:40:00,
2013-02-26 23:45:00,43.6,0.7,30.05,North,0,4.0,6.3,17,0.00,,,0.00,WUHU216HW,2013-02-27 06:45:00,
2013-02-26 23:50:00,43.4,0.6,30.05,North,0,4.7,6.3,17,0.00,,,0.00,WUHU216HW,2013-02-27 06:50:00,
2013-02-26 23:55:00,43.2,0.5,30.05,NNE,23,3.4,6.3,17,0.00,,,0.00,WUHU216HW,2013-02-27 06:55:00,